Regional Weather Roundup
Issued by NWS

Home | Current Version | Previous Version | Graphics & Text | Print | Product List | Glossary On
Versions: 1 2 3 4 5 6 7 8 9 10 11 12 13 14 15 16 17 18 19 20 21 22 23 24 25 26 27
000
ASUS45 KCYS 170010
RWRWY

WYOMING REGIONAL WEATHER ROUNDUP
NATIONAL WEATHER SERVICE CHEYENNE WY
500 PM MST SAT DEC 16 2017

NOTE:  "FAIR" INDICATES FEW OR NO CLOUDS BELOW 12,000 FEET
WITH NO SIGNIFICANT WEATHER AND/OR OBSTRUCTIONS TO VISIBILITY.

WYZ001-170100-
YELLOWSTONE NATIONAL PARK

CITY           SKY/WX    TMP DP  RH WIND       PRES   REMARKS
LK YELLOWSTONE   N/A     20  17  88 CALM      29.88R
6HR MIN TEMP:  20; 6HR MAX TEMP:  23; 6HR PCP:  0.06;

W YELLOWSTONE  NOT AVBL

$$
WYZ002>013-054>058-071-098>099-170100-
NORTHERN WYOMING

CITY           SKY/WX    TMP DP  RH WIND       PRES   REMARKS
JACKSON        CLOUDY    27  21  78 NE5       29.87R FOG     WCI  22
CODY           FLURRIES  26  22  84 N12       29.95R WCI  16
GREYBULL       LGT SNOW  30  28  92 NW13      29.92R FOG     WCI  20
6HR MIN TEMP:  30; 6HR MAX TEMP:  33; 6HR PCP:  0.08;

WORLAND        LGT SNOW  31  31 100 N8        29.90R FOG     WCI  23
6HR MIN TEMP:  31; 6HR MAX TEMP:  33; 6HR PCP:  0.09;

SHERIDAN       LGT SNOW  29  29 100 N3        30.00R FOG
6HR MIN TEMP:  29; 6HR MAX TEMP:  31; 6HR PCP:  0.13;

BUFFALO        LGT SNOW  27  22  81 NW7       29.97S WCI  19
6HR MIN TEMP:  27; 6HR MAX TEMP:  32; 6HR PCP:  0.10;

GILLETTE       LGT SNOW  28  26  92 NE7       29.97R FOG     WCI  21
6HR MIN TEMP:  28; 6HR MAX TEMP:  31; 6HR PCP:  0.06;

HULETT         LGT SNOW  30  27  86 E6        29.99R WCI  24
NEWCASTLE      LGT SNOW  32  32 100 CALM      29.96R

$$
WYZ014>020-022>026-101>103-170100-
CENTRAL WYOMING

CITY           SKY/WX    TMP DP  RH WIND       PRES   REMARKS
BIG PINEY      LGT SNOW  28  25  88 N8        29.82R FOG     WCI  20
6HR MIN TEMP:  28; 6HR MAX TEMP:  34; 6HR PCP: TRACE;

PINEDALE       LGT SNOW  28  27  93 NW10      29.82R WCI  19
DUBOIS         LGT SNOW  25  23  93 CALM      29.82R
LANDER         LGT SNOW  30  28  92 NW7       29.84R FOG     WCI  23
6HR MIN TEMP:  29; 6HR MAX TEMP:  31; 6HR PCP: TRACE;

RIVERTON       LGT SNOW  29  28  96 NE8       29.85R VSB 3/4 WCI  21
6HR MIN TEMP:  28; 6HR MAX TEMP:  31; 6HR PCP:  0.01;

CASPER         CLOUDY    28  25  88 NE12      29.89R WCI  18
6HR MIN TEMP:  28; 6HR MAX TEMP:  31; 6HR PCP:  0.04;

DOUGLAS        CLOUDY    31  29  92 NE5       29.91R WCI  26
6HR MIN TEMP:  31; 6HR MAX TEMP:  34;


$$
WYZ021-027>030-104>119-170100-
SOUTHERN WYOMING

CITY           SKY/WX    TMP DP  RH WIND       PRES   REMARKS
EVANSTON       LGT SNOW  26  25  96 N14       29.84R FOG     WCI  14
6HR MIN TEMP:  26; 6HR MAX TEMP:  32; 6HR PCP:  0.01;

FORT BRIDGER   LGT SNOW  30  29  99 NW7       29.85R WCI  23
ROCK SPRINGS   FAIR      31  24  75 NW7       29.79R WCI  24
6HR MIN TEMP:  31; 6HR MAX TEMP:  38;

DIXON          FAIR      28  19  68 NE6       29.80R WCI  22
RAWLINS        CLOUDY    32  27  81 N6        29.81R WCI  26
6HR MIN TEMP:  31; 6HR MAX TEMP:  38;

SARATOGA       FAIR      28  19  69 SW9       29.80R WCI  20
LARAMIE        FAIR      28  18  66 E10       29.80R WCI  19
6HR MIN TEMP:  28; 6HR MAX TEMP:  34;

CHEYENNE       FAIR      34  21  59 E12       29.85R WCI  25
6HR MIN TEMP:  34; 6HR MAX TEMP:  41;

TORRINGTON     CLOUDY    35  28  75 E9        29.92R WCI  28
6HR MIN TEMP:  35; 6HR MAX TEMP:  40;

PINE BLUFFS    FAIR      32  25  74 MISG      29.88R

$$




USA.gov is the U.S. government's official web portal to all federal, state and local government web resources and services.